Location: Keppel Henge
(44.7900°N, 80.9447°W)
Time: 02:24:19
(UTC-04:00)

N. Korean satellite - Pass Details

Date: 15 October 2017
Orbit: 459 x 517 km, 97.2° (Epoch: 21 October)

Event Time Altitude Azimuth Distance (km) Brightness Sun altitude
Rises 19:00:30 0° 153° (SSE) 2,540 10.0 -4.7°
Reaches altitude 10° 19:02:36 10° 148° (SSE) 1,655 9.0 -5.0°
Maximum altitude 19:06:02 47° 74° (ENE) 641 6.8 -5.6°
Drops below altitude 10° 19:09:25 10° 360° (N) 1,640 9.2 -6.2°
Sets 19:11:30 0° 354° (N) 2,515 10.2 -6.6°
